XW-3 (CAS-9)

Last updated on Sat Jun 27 2026 00:03:21 GMT+0000 (Coordinated Universal Time)

1 50466U 21131B 26177.77327153 .00000540 00000+0 18039-3 0 9999 2 50466 98.4983 270.1111 0005360 74.1740 286.0039 14.41366041236496
UTC large
Height (km)
Speed (km/s)
/
Latitude / Longitude
Inclination (degrees)
Orbital Period (minutes)
Azimuth
Elevation
Range (km)
Doppler Factor

Next 0 passes for location: London (51.5072 / 0.1276)

No passes found over London.
XW-3 (CAS-9)